Location: Boiro
(42.6475°N, 8.8834°W)
Time: 12:17:21
(UTC+02:00)

SL-8 DEB - Pass Details

Date: 11 July 2022
Orbit: 890 x 1013 km, 83.1° (Epoch: 16 August)

Event Time Altitude Azimuth Distance (km) Brightness Sun altitude
Rises 23:06:40 0° 4° (N) 3,562 ? -8.7°
Reaches altitude 10° 23:09:45 10° 19° (NNE) 2,598 ? -9.1°
Maximum altitude 23:14:16 22° 70° (ENE) 1,842 ? -9.7°
Enters shadow 23:18:16 12° 117° (ESE) 2,434 ? -10.2°
